Simultaneous Nadir Overpasses (SNOs) Predictions

Prediction of SNOs between GOES-16 and NOAA-19 Satellite Orbit:

Table of predicted SNOs for the next 14.0 days since TLE Epoch: 1/15/2022
Index Date Time (GOES-16) GOES-16 Lat,Lon NOAA-19 Lat,Lon Distance(km) Time Diff (sec)
1 01/15/2022 12:39:09 -0.04, -75.20 0.63, -77.99 319.47 80
2 01/16/2022 12:24:42 -0.04, -75.20 -0.08, -75.13 9.11 80
3 01/17/2022 12:12:55 -0.04, -75.19 -0.74, -72.25 336.97 80
4 01/20/2022 00:36:18 0.03, -75.17 -0.41, -77.15 225.11 80
5 01/21/2022 00:21:50 0.02, -75.17 0.25, -74.27 103.74 80
6 01/22/2022 00:10:03 0.02, -75.18 0.90, -71.39 432.70 80
7 01/23/2022 12:45:14 -0.01, -75.21 0.90, -79.17 452.12 80
8 01/24/2022 12:33:27 -0.01, -75.22 0.23, -76.30 122.86 80
9 01/25/2022 12:18:59 -0.02, -75.23 -0.44, -73.42 206.43 80
10 01/28/2022 00:42:23 0.01, -75.22 -0.70, -78.33 354.31 80
